Regional Weather Roundup
Issued by NWS

Home | Current Version | Previous Version | Text Only | Print | Product List | Glossary On
Versions: 1 2 3 4 5 6 7 8 9 10 11 12 13 14 15 16 17 18 19 20 21 22 23 24 25 26 27 28 29 30 31 32 33 34 35 36 37 38 39 40 41 42 43 44 45 46 47 48 49 50
000
ASUS43 KMPX 261501
RWRMN
WEATHER ROUNDUP FOR MINNESOTA
NATIONAL WEATHER SERVICE TWIN CITIES/CHANHASSEN MN
900 AM CST THU FEB 26 2015


NOTE: "FAIR" INDICATES FEW OR NO CLOUDS BELOW 12,000 FEET WITH NO
SIGNIFICANT WEATHER AND/OR OBSTRUCTIONS TO VISIBILITY. N/A MEANS
CURRENT SKY AND/OR WEATHER CONDITIONS ARE NOT AVAILABLE.

MNZ060>063-068>070-261600-
   Twin Cities Metro

CITY           SKY/WX    TMP DP  RH WIND       PRES   REMARKS
TWIN CITIES    SUNNY      0 -11  59 N10       30.45R WCI -16
ST PAUL        SUNNY      0 -11  59 N10       30.47R WCI -16
CRYSTAL        SUNNY     -1 -12  59 N10       30.45R WCI -17
BLAINE         SUNNY      0  -9  65 N9        30.43R WCI -16
LAKEVILLE      SUNNY     -2 -11  65 NW9       30.42R WCI -18
EDEN PRAIRIE   SUNNY     -1 -11  62 NW8       30.43R WCI -15
SOUTH ST PAUL  SUNNY      0 -11  59 NW9       30.45R WCI -15
LAKE ELMO      FAIR       0  -9  65 N5        30.44R WCI -10
$$
MNZ001>005-007-008-013>017-022>024-027-028-261600-
   Northwest Minnesota

CITY           SKY/WX    TMP DP  RH WIND       PRES   REMARKS
BEMIDJI        SUNNY    -15 -20  76 NW9       30.43R WCI -33
HALLOCK        MOSUNNY  -15 -20  76 W3        30.54R
ROSEAU         MOSUNNY  -15 -22  70 W3        30.49S
WARROAD        MOSUNNY  -15 -20  76 NW7       30.47R WCI -31
THIEF RVR FALL SUNNY    -13 N/A N/A NW6       30.49S WCI -27
CROOKSTON      SUNNY    -11 -17  77 NW7       30.57R WCI -26
FOSSTON        SUNNY    -13 -18  77 NW3       30.48R
DETROIT LAKES  SUNNY     -9 -15  77 N13       30.47R WCI -30
MOORHEAD       SUNNY     -8 -11  84 N13       30.55R WCI -28
PARK RAPIDS    SUNNY    -11 -18  71 NW13      30.41R WCI -32
MAHNOMEN       FAIR     -14 -19  79 NW8       30.49R WCI -31
$$
MNZ006-009>011-018-025>026-261600-
   North Central Minnesota

CITY           SKY/WX    TMP DP  RH WIND       PRES   REMARKS
BAUDETTE       MOSUNNY  -16 -23  70 NW6       30.44R WCI -31
FLAG ISLAND    MOSUNNY  -18 -24  76 NW7       30.46R WCI -35
INTL FALLS     MOSUNNY  -14 -20  74 NW6       30.41R WCI -28
WASKISH        MOSUNNY  -15 -20  76 W5        30.45R WCI -27
BIG FORK       SUNNY    -11 -18  70 NW3       30.40R
LONGVILLE      SUNNY     -9 -18  64 NW7       30.42R WCI -24
GRAND RAPIDS   SUNNY    -11 -17  77 NW8       30.37S WCI -28
CRANE LAKE     MOSUNNY  -20 -27  69 CALM      30.42R
ORR            MOSUNNY  -15 -24  64 NW3       30.34R
COOK           MOSUNNY  -15 -22  70 CALM      30.37S
WALKER         FAIR     -14 -20  74 NW7       30.42R WCI -30
$$
MNZ012-019>021-037-261600-
   Northeast Minnesota

CITY           SKY/WX    TMP DP  RH WIND       PRES   REMARKS
DULUTH         SUNNY     -8 -16  67 NW9       30.34R WCI -25
ELY            SUNNY    -11 -17  77 W3        30.33S
HIBBING        SUNNY     -9 -18  64 N7        30.37R WCI -24
EVELETH        SUNNY     -8 -15  71 NW6       30.37R WCI -21
DULUTH HARBOR  SUNNY     -2 -13  60 CALM      30.45S
TWO HARBORS    SUNNY      0 -13  55 CALM      30.35R
SILVER BAY     SUNNY      0 -13  55 NW5       30.34S WCI -10
GRAND MARAIS     N/A     -2 -14  56 CALM      30.40S
G MARAIS ARPRT SUNNY     -8 -18  59 NW5       30.23R WCI -19
$$
MNZ029>031-032-039>041-046>048-054>057-064-261600-
   West Central Minnesota

CITY           SKY/WX    TMP DP  RH WIND       PRES   REMARKS
FERGUS FALLS   SUNNY     -8 -17  65 N13       30.55R WCI -28
WHEATON        SUNNY     -9 -15  77 NW13      30.56R WCI -30
MORRIS         SUNNY     -6 -13  71 NW13      30.49R WCI -25
ALEXANDRIA     SUNNY     -8 -16  67 N12       30.44R WCI -27
ELBOW LAKE     FAIR      -9 -15  74 NW9       30.49R WCI -26
WADENA         SUNNY    -11 -17  77 NW15      30.43S WCI -34
GLENWOOD       SUNNY     -8 -15  71 NW13      30.45R WCI -28
APPLETON       SUNNY     -2 -11  65 N13       30.52R WCI -21
BENSON         SUNNY     -4 -11  71 N9        30.49R WCI -20
ORTONVILLE     SUNNY     -8 -15  71 NW12      30.51R WCI -27
MADISON        SUNNY     -6 -11  77 NW12      30.52R WCI -24
WILLMAR        FAIR      -6 -15  65 NW10      30.47R WCI -23
$$
MNZ033>034-036-042>043-049>051-058-059-261600-
   Central Minnesota

CITY           SKY/WX    TMP DP  RH WIND       PRES   REMARKS
ST CLOUD       SUNNY     -6 -15  65 NW12      30.45R WCI -25
SAUK CENTRE    FAIR      -7 -15  68 N8        30.45R WCI -23
PAYNESVILLE    SUNNY     -8 -15  71 NW10      30.46R WCI -26
AITKIN         SUNNY     -6 -17  59 NW7       30.40S WCI -20
PINE RIVER     SUNNY    -11 -17  77 NW8       30.44R WCI -28
BRAINERD       SUNNY     -8 -17  64 N8        30.43R WCI -24
STAPLES        SUNNY     -9 -18  64 NW7       30.43R WCI -24
LONG PRAIRIE   FAIR      -8 -15  71 NW10      30.44R WCI -26
LITTLE FALLS   SUNNY     -6 -17  59 NW5       30.45S WCI -17
LITCHFIELD     SUNNY     -6 -11  77 N3        30.45R
BUFFALO        SUNNY     -4 -11  71 NW9       30.46R WCI -20
MAPLE LAKE     SUNNY     -3 -10  69 NW10      30.45S WCI -19
$$
MNZ037-044-045-052-053-261600-
   East Central Minnesota

CITY           SKY/WX    TMP DP  RH WIND       PRES   REMARKS
PRINCETON      SUNNY     -4 -13  65 NW8       30.44R WCI -19
MORA           SUNNY     -4 -13  65 N9        30.44R WCI -20
CAMBRIDGE      FAIR      -2 -13  60 NW7       30.42R WCI -16
RUSH CITY      MOSUNNY   -4 -14  64 NW6       30.44R WCI -17
MOOSE LAKE     SUNNY     -6 -17  59 CALM      30.40S
HINCKLEY       FAIR      -4 -13  65 N8        30.42R WCI -19
CLOQUET        SUNNY     -8 -17  65 NW8       30.37R WCI -23
MCGREGOR       SUNNY     -8 -15  71 NW8       30.41S WCI -23
$$
MNZ071>073-080-081-089-090-097-098-261600-
   Southwest Minnesota

CITY           SKY/WX    TMP DP  RH WIND       PRES   REMARKS
MONTEVIDEO     SUNNY     -2  -9  71 N8        30.52R WCI -17
GRANITE FALLS  SUNNY     -6 -13  72 NW10      30.52R WCI -24
CANBY          SUNNY     -4 -11  73 NW13      30.52R WCI -24
MARSHALL       FAIR      -6 -13  71 N14       30.49R WCI -26
REDWOOD FALLS  SUNNY     -5 -13  68 NW9G20    30.48R WCI -22
OLIVIA         SUNNY     -6 -11  77 NW10      30.48R WCI -23
PIPESTONE      SUNNY     -8 -15  71 N13       30.42R WCI -28
WINDOM         SUNNY     -6 -11  77 NW18      30.43R WCI -29
WORTHINGTON    SUNNY     21 -15  19 N18       30.42S WCI   6
JACKSON        MOSUNNY   -6 -13  71 NW20      30.41S WCI -29
TRACY          SUNNY     -5 -11  74 NW15      30.47R WCI -26
SLAYTON        SUNNY     -6 -14  69 NW15      30.42S WCI -27
$$
MNZ065>067-074>077-082>085-091>093-261600-
   South Central Minnesota

CITY           SKY/WX    TMP DP  RH WIND       PRES   REMARKS
MANKATO        SUNNY     -6 -11  77 NW12      30.43R WCI -24
NEW ULM        SUNNY     -8 -15  71 NW13      30.46R WCI -28
ST JAMES       SUNNY     -6 -13  71 NW13      30.46R WCI -25
FAIRMONT       SUNNY     -6 -11  77 NW15      30.41R WCI -27
GLENCOE        SUNNY     -3 -10  72 NW9       30.44S WCI -19
FARIBAULT      SUNNY      0 -11  60 NW8       30.41R WCI -15
OWATONNA       SUNNY     -6 -13  71 NW8       30.40R WCI -21
WASECA         SUNNY     -4 -11  71 NW12      30.42R WCI -22
ALBERT LEA     SUNNY     -4 -11  71 NW8       30.38R WCI -19
$$
MNZ078>079-086>088-094>096-261600-
   Southeast Minnesota

CITY           SKY/WX    TMP DP  RH WIND       PRES   REMARKS
ROCHESTER      SUNNY     -3 -12  65 N14       30.35R WCI -22
RED WING       SUNNY      1 -15  46 CALM      30.42R
STANTON        SUNNY     -1 -11  63 NW6       30.41R WCI -13
DODGE CENTER   MOSUNNY   -4 -11  71 N12       30.35R WCI -22
WINONA         SUNNY      3  -8  60 N6        30.41R WCI  -8
AUSTIN         SUNNY     -4 -13  65 NW9       30.37R WCI -20
PRESTON        SUNNY     -2 -12  63 N12       30.34R WCI -20
$$
ABBREVIATIONS USED IN REMARKS
   TC - TEMPERATURES IN CELSIUS
  WCI - WIND CHILL INDEX
   HX - HEAT INDEX
  VSB - VISIBILITY
$$


USA.gov is the U.S. government's official web portal to all federal, state and local government web resources and services.